Вернуться в каталог

NOAA 16 DEB

АктивенPO
NORAD 41198·DEBRIS·🇺🇸 United States

Запущен Sep 21, 2000 с Vandenberg Space Force Base

Loading…

Ближайшие Пролёты (ближайшие 24 часа)

TLE

СвежийSource: Space-Track

Эпоха: Sep 13, 2026, 06:52 UTC

1 41198U 00055DB  26256.28632774  .00007523  00000-0  20444-2 0  9996
2 41198  98.9092  16.6098 0019986 241.6168 118.3008 14.47706394554531

Отслеживайте NOAA 16 DEB в реальном времени с AllMySat

Download on the App Store